Tiempo cada hora León

Hoy, 10 Mayo, Lunes

Tiempo Temperatura Precipitaciones Viento Presión Humedad
00:00 +4°C° 0 mm 2 mps 683 mmHg 92%
01:00 +4°C° 0 mm 2 mps 683 mmHg 93%
02:00 +3°C° 0 mm 2 mps 683 mmHg 94%
03:00 +4°C° 0 mm 1 mps 683 mmHg 95%
04:00 +4°C° 0 mm 1 mps 683 mmHg 95%
05:00 +5°C° 0 mm 1 mps 684 mmHg 94%
06:00 +4°C° 0 mm 2 mps 684 mmHg 94%
07:00 +4°C° 0 mm 3 mps 684 mmHg 87%
08:00 +6°C° 0 mm 4 mps 684 mmHg 80%
09:00 +7°C° 0 mm 5 mps 684 mmHg 74%
10:00 +8°C° 0.2 mm 5 mps 684 mmHg 68%
11:00 +9°C° 0.2 mm 6 mps 683 mmHg 62%
12:00 +11°C° 0.2 mm 6 mps 683 mmHg 56%
13:00 +10°C° 0.3 mm 7 mps 683 mmHg 60%
14:00 +10°C° 0.3 mm 7 mps 683 mmHg 64%
15:00 +9°C° 0.3 mm 8 mps 682 mmHg 67%
16:00 +8°C° 0.7 mm 6 mps 683 mmHg 71%
17:00 +7°C° 0.7 mm 5 mps 683 mmHg 75%
18:00 +6°C° 0.7 mm 4 mps 683 mmHg 78%
19:00 +5°C° 0 mm 4 mps 684 mmHg 82%
20:00 +4°C° 0 mm 4 mps 684 mmHg 85%
21:00 +4°C° 0 mm 4 mps 685 mmHg 89%
22:00 +3°C° 0 mm 4 mps 685 mmHg 89%
23:00 +1°C° 0 mm 4 mps 686 mmHg 88%

Mañana, 11 Mayo, Martes

Tiempo Temperatura Precipitaciones Viento Presión Humedad
00:00 +1°C° 0 mm 4 mps 686 mmHg 88%
01:00 +1°C° 0 mm 4 mps 686 mmHg 88%
02:00 0°C° 0 mm 4 mps 687 mmHg 87%
03:00 +1°C° 0 mm 3 mps 687 mmHg 87%
04:00 +1°C° 0 mm 3 mps 687 mmHg 87%
05:00 +1°C° 0 mm 3 mps 688 mmHg 88%
06:00 +1°C° 0 mm 3 mps 688 mmHg 88%
07:00 +3°C° 0 mm 3 mps 689 mmHg 79%
08:00 +5°C° 0 mm 4 mps 689 mmHg 69%
09:00 +7°C° 0 mm 5 mps 690 mmHg 60%
10:00 +8°C° 0 mm 5 mps 690 mmHg 56%
11:00 +10°C° 0 mm 4 mps 690 mmHg 52%
12:00 +11°C° 0 mm 4 mps 690 mmHg 48%
13:00 +10°C° 0 mm 5 mps 690 mmHg 47%
14:00 +12°C° 0 mm 5 mps 690 mmHg 47%
15:00 +11°C° 0 mm 6 mps 689 mmHg 46%
16:00 +10°C° 0 mm 6 mps 689 mmHg 52%
17:00 +10°C° 0 mm 5 mps 689 mmHg 58%
18:00 +9°C° 0 mm 5 mps 689 mmHg 64%
19:00 +8°C° 0.1 mm 4 mps 689 mmHg 69%
20:00 +7°C° 0.1 mm 4 mps 689 mmHg 74%
21:00 +6°C° 0.1 mm 4 mps 689 mmHg 80%
22:00 +5°C° 0.4 mm 4 mps 689 mmHg 84%
23:00 +5°C° 0.4 mm 4 mps 689 mmHg 89%

Pasado mañana, 12 Mayo, Miércoles

Tiempo Temperatura Precipitaciones Viento Presión Humedad
00:00 +5°C° 0.4 mm 4 mps 688 mmHg 93%
01:00 +5°C° 0.2 mm 4 mps 688 mmHg 94%
02:00 +5°C° 0.2 mm 5 mps 687 mmHg 95%
03:00 +6°C° 0.2 mm 5 mps 687 mmHg 95%
04:00 +6°C° 0.1 mm 5 mps 687 mmHg 94%
05:00 +6°C° 0.1 mm 5 mps 686 mmHg 92%
06:00 +6°C° 0.1 mm 5 mps 686 mmHg 91%
07:00 +6°C° 0.1 mm 5 mps 687 mmHg 88%
08:00 +7°C° 0.1 mm 5 mps 687 mmHg 85%
09:00 +7°C° 0.1 mm 4 mps 687 mmHg 82%
10:00 +8°C° 0.1 mm 5 mps 688 mmHg 78%
11:00 +9°C° 0.1 mm 5 mps 688 mmHg 74%
12:00 +9°C° 0.1 mm 6 mps 689 mmHg 70%
13:00 +10°C° 0.1 mm 6 mps 689 mmHg 67%
14:00 +10°C° 0.1 mm 6 mps 689 mmHg 63%
15:00 +11°C° 0.1 mm 6 mps 689 mmHg 60%
16:00 +10°C° 0 mm 6 mps 689 mmHg 62%
17:00 +10°C° 0 mm 5 mps 689 mmHg 65%
18:00 +9°C° 0 mm 5 mps 689 mmHg 68%
19:00 +8°C° 0 mm 5 mps 690 mmHg 73%
20:00 +7°C° 0 mm 4 mps 690 mmHg 78%
21:00 +7°C° 0 mm 3 mps 690 mmHg 83%
22:00 +5°C° 0 mm 3 mps 690 mmHg 84%
23:00 +6°C° 0 mm 2 mps 690 mmHg 85%

13 Mayo, Jueves

Tiempo Temperatura Precipitaciones Viento Presión Humedad
00:00 +6°C° 0 mm 2 mps 690 mmHg 87%
01:00 +6°C° 0 mm 2 mps 690 mmHg 86%
02:00 +6°C° 0 mm 2 mps 689 mmHg 84%
03:00 +6°C° 0 mm 2 mps 689 mmHg 83%
04:00 +6°C° 0 mm 2 mps 689 mmHg 84%
05:00 +6°C° 0 mm 2 mps 688 mmHg 86%
06:00 +6°C° 0 mm 2 mps 688 mmHg 87%
07:00 +7°C° 0.3 mm 2 mps 688 mmHg 87%
08:00 +7°C° 0.3 mm 3 mps 688 mmHg 87%
09:00 +8°C° 0.3 mm 3 mps 688 mmHg 87%
10:00 +8°C° 1.9 mm 3 mps 687 mmHg 89%
11:00 +8°C° 1.9 mm 3 mps 687 mmHg 92%
12:00 +8°C° 1.9 mm 3 mps 687 mmHg 94%
13:00 +8°C° 1.6 mm 3 mps 686 mmHg 93%
14:00 +8°C° 1.6 mm 3 mps 686 mmHg 92%
15:00 +9°C° 1.6 mm 2 mps 686 mmHg 90%
16:00 +9°C° 0.1 mm 2 mps 686 mmHg 90%
17:00 +9°C° 0.1 mm 2 mps 685 mmHg 90%
18:00 +9°C° 0.1 mm 2 mps 685 mmHg 90%
19:00 +8°C° 0 mm 2 mps 685 mmHg 91%
20:00 +8°C° 0 mm 2 mps 686 mmHg 92%
21:00 +7°C° 0 mm 2 mps 686 mmHg 94%
22:00 +7°C° 0.1 mm 2 mps 686 mmHg 93%
23:00 +8°C° 0.1 mm 3 mps 686 mmHg 92%

14 Mayo, Viernes

Tiempo Temperatura Precipitaciones Viento Presión Humedad
00:00 +8°C° 0.1 mm 3 mps 686 mmHg 90%
01:00 +7°C° 0.2 mm 3 mps 686 mmHg 90%
02:00 +7°C° 0.2 mm 3 mps 686 mmHg 90%
03:00 +7°C° 0.2 mm 3 mps 687 mmHg 90%
04:00 +5°C° 0 mm 3 mps 687 mmHg 90%
05:00 +6°C° 0 mm 2 mps 687 mmHg 89%
06:00 +6°C° 0 mm 2 mps 687 mmHg 89%
07:00 +7°C° 0 mm 2 mps 688 mmHg 79%
08:00 +9°C° 0 mm 3 mps 688 mmHg 70%
09:00 +10°C° 0 mm 3 mps 689 mmHg 60%
10:00 +11°C° 0 mm 3 mps 689 mmHg 54%
11:00 +12°C° 0 mm 3 mps 689 mmHg 49%
12:00 +14°C° 0 mm 3 mps 689 mmHg 43%
13:00 +14°C° 0 mm 4 mps 689 mmHg 42%
14:00 +15°C° 0 mm 5 mps 689 mmHg 40%
15:00 +15°C° 0 mm 5 mps 689 mmHg 39%
16:00 +14°C° 0 mm 5 mps 689 mmHg 43%
17:00 +14°C° 0 mm 4 mps 689 mmHg 47%
18:00 +13°C° 0 mm 4 mps 689 mmHg 52%
19:00 +11°C° 0 mm 3 mps 690 mmHg 60%
20:00 +9°C° 0 mm 3 mps 690 mmHg 68%
21:00 +7°C° 0 mm 3 mps 691 mmHg 76%
22:00 +7°C° 0 mm 2 mps 691 mmHg 78%
23:00 +7°C° 0 mm 2 mps 691 mmHg 80%

15 Mayo, Sábado

Tiempo Temperatura Precipitaciones Viento Presión Humedad
00:00 +6°C° 0 mm 2 mps 691 mmHg 82%
01:00 +6°C° 0 mm 2 mps 691 mmHg 83%
02:00 +7°C° 0 mm 1 mps 691 mmHg 85%
03:00 +6°C° 0 mm 1 mps 691 mmHg 87%
04:00 +7°C° 0 mm 1 mps 691 mmHg 85%
05:00 +7°C° 0 mm 1 mps 691 mmHg 84%
06:00 +6°C° 0 mm 0 mps 691 mmHg 83%
07:00 +9°C° 0 mm 1 mps 691 mmHg 76%
08:00 +10°C° 0 mm 2 mps 691 mmHg 69%
09:00 +12°C° 0 mm 3 mps 691 mmHg 62%
10:00 +14°C° 0 mm 4 mps 691 mmHg 60%
11:00 +17°C° 0 mm 4 mps 692 mmHg 58%
12:00 +17°C° 0 mm 5 mps 692 mmHg 57%
13:00 +19°C° 0 mm 5 mps 692 mmHg 55%
14:00 +20°C° 0 mm 6 mps 692 mmHg 53%
15:00 +21°C° 0 mm 6 mps 692 mmHg 52%
16:00 +20°C° 0 mm 6 mps 692 mmHg 56%
17:00 +20°C° 0 mm 6 mps 692 mmHg 60%
18:00 +19°C° 0 mm 5 mps 692 mmHg 64%
19:00 +16°C° 0 mm 5 mps 692 mmHg 70%
20:00 +14°C° 0 mm 4 mps 692 mmHg 77%
21:00 +12°C° 0 mm 3 mps 692 mmHg 84%
22:00 +12°C° 0 mm 3 mps 692 mmHg 85%
23:00 +11°C° 0 mm 3 mps 692 mmHg 86%
Mostrar más

Necesitamos Su Consentimiento

Meteoprog y nuestros Proveedores de Servicios pueden almacenar y acceder a sus datos personales como cookies, identificadores de dispositivo u otras tecnologías similares de su dispositivo y procesar dichos datos para personalizar contenido y anuncios, además de ofrecer funciones de redes sociales y analizar el tráfico.

  • Almacenar y/o acceder a información en su dispositivo

    Se puede almacenar o acceder a cookies, identificadores de dispositivo u otra información de su dispositivo para los fines anteriormente indicados.

  • Anuncios y contenido personalizados, medición de anuncios y contenido, percepciones del público, y desarrollo de productos

    Los anuncios y el contenido pueden personalizarse en base a su perfil. Se pueden añadir más datos para personalizar mejor los anuncios y contenidos. Se puede medir el rendimiento de los anuncios y contenidos. Se puede obtener la percepción sobre el público que ha visto los anuncios y contenidos. Dichos datos pueden usarse para desarrollar o mejorar la experiencia del usuario, sistemas y software.

Al hacer clic en ‘Estoy De Acuerdo’ usted permitirá el uso de las cookies, identificadores de dispositivo, balizas web u otras tecnologías similares indicadas. Su configuración puede cambiarse desde el navegador de su dispositivo.

Para ciertos fines, los intereses legítimos pueden ser considerados por encima del consentimiento. Puede leer más sobre ello en nuestra Política de Privacidad y Cookies.